Location: Klinovec
(50.3970°N, 12.9600°E)
Time: 18:46:04
(UTC+01:00)

Envisat - Visible Passes

Search period start: 17 November 2019 00:00
Search period end: 27 November 2019 00:00
Orbit: 764 x 766 km, 98.1° (Epoch: 17 November)

Date Brightness Start Highest point End Pass type
(mag) Time Alt. Az. Time Alt. Az. Time Alt. Az.
17 Nov 4.6 06:34:00 10° NNE 06:38:49 41° E 06:43:35 10° SSE visible
17 Nov 2.9 17:53:06 10° SSE 17:58:11 84° ENE 18:03:19 10° NNW visible
17 Nov 5.8 19:34:54 10° WSW 19:37:54 16° W 19:40:55 10° NW visible
18 Nov 5.8 05:57:54 10° NE 06:01:43 21° E 06:05:31 10° SE visible
18 Nov 3.3 17:16:45 10° SE 17:21:33 43° ENE 17:26:21 10° N visible
18 Nov 4.8 18:56:15 10° SSW 19:00:42 31° W 19:05:12 10° NNW visible
19 Nov 6.6 05:24:24 10° E 05:24:24 10° E 05:24:25 10° E visible
19 Nov 3.5 18:18:42 10° S 18:23:43 61° W 18:28:47 10° NNW visible
20 Nov 5.0 06:22:51 10° NNE 06:27:28 33° E 06:32:02 10° SSE visible
20 Nov 2.9 17:41:53 10° SSE 17:46:56 69° ENE 17:52:00 10° N visible
20 Nov 5.6 19:22:53 10° SW 19:26:28 19° W 19:30:05 10° NW visible
21 Nov 6.0 05:47:00 10° NE 05:50:18 17° E 05:53:35 10° SE visible
21 Nov 3.5 17:05:44 10° SE 17:10:20 36° ENE 17:14:58 10° N visible
21 Nov 4.5 18:44:39 10° SSW 18:49:21 37° W 18:54:05 10° NNW visible
22 Nov 3.9 06:48:06 10° NNE 06:53:07 54° E 06:58:05 10° S visible
22 Nov 3.2 18:07:21 10° S 18:12:25 75° WSW 18:17:32 10° NNW visible
22 Nov 6.2 19:50:41 10° WSW 19:52:21 11° W 19:54:02 10° WNW visible
23 Nov 5.3 06:11:46 10° NE 06:16:05 27° E 06:20:24 10° SSE visible
23 Nov 3.0 17:30:44 10° SSE 17:35:41 57° ENE 17:40:41 10° N visible
23 Nov 5.3 19:11:03 10° SW 19:15:04 23° W 19:19:07 10° NW visible
24 Nov 6.1 05:36:16 10° NE 05:38:52 14° E 05:41:27 10° ESE visible
24 Nov 3.7 16:54:46 10° ESE 16:59:08 30° ENE 17:03:33 10° N visible
24 Nov 4.1 18:33:08 10° S 18:38:01 46° W 18:42:54 10° NNW visible
25 Nov 4.4 06:36:54 10° NNE 06:41:47 44° E 06:46:37 10° S visible
25 Nov 3.0 17:56:03 10° SSE 18:01:09 90° NNW 18:06:16 10° NNW visible
25 Nov 5.9 19:38:11 10° WSW 19:40:54 14° W 19:43:38 10° NW visible
26 Nov 5.6 06:00:44 10° NE 06:04:43 23° E 06:08:40 10° SE visible
26 Nov 3.2 17:19:37 10° SE 17:24:27 47° ENE 17:29:20 10° N visible
26 Nov 5.0 18:59:20 10° SSW 19:03:41 28° W 19:08:05 10° NW visible
